TimeEDT,TemperatureF,Dew PointF,Humidity,Sea Level PressureIn,VisibilityMPH,Wind Direction,Wind SpeedMPH,Gust SpeedMPH,PrecipitationIn,Events,Conditions,WindDirDegrees,DateUTC
12:07 AM,55.4,53.6,94,29.59,4.0,NNE,15.0,-,0.05,Rain,Rain,30,2013-06-14 04:07:00
12:36 AM,53.6,51.8,94,29.57,6.0,NE,16.1,21.9,0.08,Rain,Light Rain,40,2013-06-14 04:36:00
12:44 AM,53.6,51.8,94,29.57,7.0,NE,15.0,23.0,0.09,Rain,Light Rain,40,2013-06-14 04:44:00
12:53 AM,54.0,52.0,93,29.58,8.0,NE,15.0,23.0,0.10,Rain,Light Rain,40,2013-06-14 04:53:00
1:53 AM,54.0,52.0,93,29.57,8.0,NE,16.1,28.8,0.07,Rain,Light Rain,50,2013-06-14 05:53:00
2:40 AM,53.6,51.8,94,29.57,3.0,NE,13.8,25.3,0.09,Rain,Rain,40,2013-06-14 06:40:00
2:53 AM,53.1,51.1,93,29.57,6.0,NE,11.5,26.5,0.10,Rain,Light Rain,40,2013-06-14 06:53:00
3:53 AM,54.0,52.0,93,29.56,4.0,NNE,12.7,20.7,0.05,Rain,Light Rain,30,2013-06-14 07:53:00
4:00 AM,53.6,51.8,94,29.56,4.0,NNE,15.0,21.9,0.00,Rain,Light Rain,30,2013-06-14 08:00:00
4:09 AM,53.6,51.8,94,29.56,3.0,NNE,17.3,23.0,0.02,Rain,Light Rain,30,2013-06-14 08:09:00
4:28 AM,53.6,51.8,94,29.58,4.0,NNE,13.8,23.0,0.05,Rain,Light Rain,30,2013-06-14 08:28:00
4:33 AM,53.6,51.8,94,29.58,5.0,NNE,15.0,20.7,0.06,Rain,Light Rain,30,2013-06-14 08:33:00
4:53 AM,54.0,52.0,93,29.58,3.0,NNE,17.3,23.0,0.12,Rain,Heavy Rain,30,2013-06-14 08:53:00
5:23 AM,53.6,51.8,94,29.58,5.0,NNE,15.0,26.5,0.05,Rain,Rain,30,2013-06-14 09:23:00
5:53 AM,54.0,51.1,90,29.60,3.0,NE,16.1,24.2,0.09,Rain,Light Rain,40,2013-06-14 09:53:00
6:03 AM,53.6,51.8,94,29.59,2.0,NE,15.0,23.0,0.05,Rain,Heavy Rain,40,2013-06-14 10:03:00
6:21 AM,53.6,51.8,94,29.61,3.0,NNE,17.3,23.0,0.08,Rain,Light Rain,30,2013-06-14 10:21:00
6:32 AM,53.6,50.0,88,29.61,6.0,NNE,10.4,32.2,0.09,Rain,Light Rain,20,2013-06-14 10:32:00
6:42 AM,53.6,50.0,88,29.62,10.0,NNE,10.4,25.3,0.09,Rain,Light Rain,20,2013-06-14 10:42:00
6:53 AM,53.1,50.0,89,29.62,6.0,NNE,13.8,23.0,0.10,Rain,Light Rain,30,2013-06-14 10:53:00
7:00 AM,53.6,51.8,94,29.63,3.0,NNE,12.7,24.2,0.02,Rain,Rain,20,2013-06-14 11:00:00
7:17 AM,53.6,51.8,94,29.63,4.0,NNE,12.7,20.7,0.05,Rain,Light Rain,30,2013-06-14 11:17:00
7:46 AM,53.6,51.8,94,29.64,6.0,NNE,12.7,19.6,0.07,Rain,Light Rain,20,2013-06-14 11:46:00
7:53 AM,54.0,51.1,90,29.63,8.0,NNE,10.4,19.6,0.08,Rain,Light Rain,30,2013-06-14 11:53:00
8:04 AM,53.6,51.8,94,29.63,10.0,NNE,15.0,23.0,0.00,Rain,Light Rain,30,2013-06-14 12:04:00
8:12 AM,53.6,51.8,94,29.63,10.0,NNE,12.7,24.2,0.00,Rain,Light Rain,30,2013-06-14 12:12:00
8:34 AM,53.6,51.8,94,29.64,10.0,NNE,13.8,24.2,0.00,,Overcast,30,2013-06-14 12:34:00
8:48 AM,53.6,51.8,94,29.65,10.0,NNE,12.7,20.7,0.00,Rain,Light Rain,20,2013-06-14 12:48:00
8:53 AM,54.0,51.1,90,29.65,10.0,NNE,12.7,20.7,0.00,Rain,Light Rain,20,2013-06-14 12:53:00
9:11 AM,53.6,51.8,94,29.64,10.0,NNE,12.7,27.6,0.01,Rain,Light Rain,20,2013-06-14 13:11:00
9:53 AM,55.9,51.1,84,29.65,10.0,NNE,17.3,25.3,0.02,,Overcast,30,2013-06-14 13:53:00
10:39 AM,57.2,50.0,77,29.66,10.0,NE,16.1,28.8,N/A,,Overcast,40,2013-06-14 14:39:00
10:53 AM,60.1,50.0,69,29.67,10.0,NE,16.1,26.5,N/A,,Overcast,40,2013-06-14 14:53:00
11:53 AM,61.0,48.0,62,29.68,10.0,NNE,15.0,26.5,N/A,,Overcast,30,2013-06-14 15:53:00
12:53 PM,62.1,48.9,62,29.69,10.0,North,13.8,27.6,N/A,,Overcast,10,2013-06-14 16:53:00
1:53 PM,63.0,46.9,56,29.70,10.0,NNE,11.5,24.2,N/A,,Scattered Clouds,20,2013-06-14 17:53:00
2:53 PM,64.0,46.0,52,29.71,10.0,North,11.5,-,N/A,,Mostly Cloudy,360,2013-06-14 18:53:00
3:53 PM,64.9,48.0,54,29.72,10.0,Calm,Calm,-,N/A,,Scattered Clouds,0,2013-06-14 19:53:00
4:53 PM,64.9,50.0,58,29.71,10.0,NW,3.5,-,N/A,,Partly Cloudy,310,2013-06-14 20:53:00
5:53 PM,68.0,52.0,56,29.71,10.0,SSW,4.6,-,N/A,,Partly Cloudy,210,2013-06-14 21:53:00
6:53 PM,69.1,55.0,61,29.72,10.0,WNW,4.6,-,N/A,,Clear,290,2013-06-14 22:53:00
7:53 PM,64.0,55.0,73,29.73,10.0,SW,4.6,-,N/A,,Partly Cloudy,220,2013-06-14 23:53:00
8:53 PM,59.0,55.0,87,29.74,10.0,SSW,4.6,-,N/A,,Clear,200,2013-06-15 00:53:00
9:53 PM,55.9,53.1,90,29.74,10.0,WSW,3.5,-,N/A,,Clear,240,2013-06-15 01:53:00
10:53 PM,60.1,55.0,83,29.74,10.0,West,5.8,-,N/A,,Partly Cloudy,270,2013-06-15 02:53:00
11:53 PM,62.1,54.0,75,29.75,10.0,WNW,9.2,-,N/A,,Clear,290,2013-06-15 03:53:00